Location: Nairn
(57.5833°N, 3.8667°W)
Time: 02:29:20
(UTC+00:00)

Vanguard 1 Rocket - Pass Details

Date: 04 December 2020
Orbit: 655 x 4221 km, 34.3° (Epoch: 20 January)

Event Time Altitude Azimuth Distance (km) Brightness Sun altitude
Exits shadow 06:47:03 - 264° (W) 7,141 11.4 -13.4°
Reaches altitude 10° 06:50:32 10° 257° (WSW) 6,583 11.3 -13.0°
Maximum altitude 06:59:21 15° 231° (SW) 5,411 11.1 -11.9°
Drops below altitude 10° 07:06:24 10° 203° (SSW) 5,052 11.2 -11.0°
Sets 07:12:03 0° 181° (S) 5,358 11.7 -10.3°
